Regional Weather Roundup
Issued by NWS New Orleans/Baton Rouge, LA

Home | Current Version | Previous Version | Text Only | Print | Product List | Glossary Off
Versions: 1 2 3 4 5 6 7 8 9 10 11 12 13 14 15 16 17 18 19 20 21 22 23 24 25 26 27 28 29 30 31 32 33 34 35 36 37 38 39 40 41 42 43 44 45 46 47 48 49 50

237
ASUS44 KLIX 031901
RWRLIX
NEW ORLEANS REGIONAL WEATHER ROUNDUP
NATIONAL WEATHER SERVICE NEW ORLEANS LA
100 PM CST TUE MAR 03 2015

NOTE: "FAIR" INDICATES FEW OR NO CLOUDS BELOW 12,000 FEET WITH NO
      SIGNIFICANT WEATHER AND/OR OBSTRUCTIONS TO VISIBILITY.
      SKY/WX - SKY CONDITION AND SIGNIFICANT WEATHER.
      TMP - AIR TEMPERATURE.     DP    - DEWPOINT TEMPERATURE.
      RH  - RELATIVE HUMIDITY.   PRES  - PRESSURE.
      HI  - HEAT INDEX.          WCI   - WIND CHILL INDEX.

*  THESE STATIONS ARE NOT NWS OR FAA STATIONS AND ARE NOT UNDER
   NWS QUALITY CONTROL.

LAZ038-040-048-061>063-065>067-069-032000-
SOUTHEAST LOUISIANA

CITY           SKY/WX    TMP DP  RH WIND       PRES   REMARKS
N.O. AUDUBON     N/A     79  70  73 MISG        N/A
N.O. INTL ARPT MOSUNNY   79  67  66 S16G25    30.07F
N.O. LAKEFRONT LGT RAIN  78  68  71 S14       30.08F
SLIDELL        PTSUNNY   76  69  79 SE9       30.08F
BATON ROUGE    CLOUDY    75  70  84 S10       30.04F
BOOTHVILLE     MOSUNNY   77  68  73 SE16G25   30.10F
BELLE CHASSE   PTSUNNY   78  66  66 S17       30.07F
BOGALUSA*        N/A     78  68  69 S8        30.09F
GALLIANO*      MOCLDY    80  67  65 SE13G20   30.08F
NEW ROADS*     CLOUDY    76  69  77 S9        30.04F
GONZALES*      NOT AVBL
HAMMOND*       NOT AVBL
HOUMA*         PTSUNNY   79  70  73 SE21      30.07F
PORT FOURCHON* CLEAR     75  68  78 SE10      30.11F

$$

MSZ070-080>082-032000-
SOUTHERN MISSISSIPPI

CITY           SKY/WX    TMP DP  RH WIND       PRES   REMARKS
MCCOMB         CLOUDY    75  66  73 S14G20    30.05F
GULFPORT       CLOUDY    69  64  84 SE15      30.11F
BILOXI         MOSUNNY   72  66  81 SE13      30.11F
PASCAGOULA     CLOUDY    71  64  78 SE10      30.12F
STENNIS ARPT*  PTSUNNY   72  63  73 SE12G20   30.11F

$$

COASTAL OBSERVATIONS
LAKE AND NEARSHORE STATIONS

STATION/POSITION TIME  TEMP    WIND        PRES    WAVE
                       AIR SEA DIR/SP/G            HT/PER
                 (UTC) (F)     (DEG/KT/KT) (MB)    (FT/S)
PASCAGOULA       1800   70     120/  4/  7 1019.9
WAVELAND YACHT   1800   63 56  140/  9/ 11 1019.6
GRAND ISLE       1800   70 63  130/  8/ 11 1019.7
SOUTHWEST PASS   1800   73 46  140/ 11/ 12 1019.7
NEW CANAL        1800   78     180/  7/ 12 1019.0
SHELL BEACH      1800   73 60  130/ 15/ 18 1019.1

OFFSHORE STATIONS

STATION/POSITION TIME  TEMP    WIND        PRES    WAVE
                       AIR SEA DIR/SP/G            HT/PER
                 (UTC) (F)     (DEG/KT/KT) (MB)    (FT/S)
64 S DAUPHIN ISL 1751   71 72  150/ 14/ 16 1020.6    3/ 6

$$




USA.gov is the U.S. government's official web portal to all federal, state and local government web resources and services.